STARLINK-31388 (59565 NORAD) Tracking and Keplerian Element Data

This shows tracking and keplerian element data for the satellite.

Feedback or suggestion? Click here.




ElementValue
Catalog59565
NameSTARLINK-31388
Epoch Orbit830
Epoch Day160.07867153
Epoch Year2024
RAAN53.9905
Inclination43.002
Eccentricity0.0001368
Argument of Perigee283.8311
Mean Anonmoly76.2393
Mean Motion15.40685593
Decay Rate-3.355E-05
L11 59565U 24076B 24160.07867153 -.00003355 00000+0 -73116-4 0 9998
L22 59565 43.0020 53.9905 0001368 283.8311 76.2393 15.40685593 8303



Live tracking and technical data element details for STARLINK-31388 (NORAD 59565). STARLINK-31388 can be tracked NOW for your location showing map with azimuth and elevation plus other details from your city location.







IsCatalogInMostPopularTable: catalog: 59565, numindb: 13
Update: records affected: 1



GetName: 59565 STARLINK-31388

Hit Count: updated at: Fri, 14 Jun 2024 18:54:17 GMT